"Period start","avg(HW err(1)/warn(2) (#))","avg(Visibility (m))","avg(Weather code (#))","avg(Precip intensity (mm/h))","min(HW err(1)/warn(2) (#))","max(HW err(1)/warn(2) (#))","std(HW err(1)/warn(2) (#))","med(HW err(1)/warn(2) (#))","min(Visibility (m))","max(Visibility (m))","std(Visibility (m))","med(Visibility (m))","min(Weather code (#))","max(Weather code (#))","std(Weather code (#))","med(Weather code (#))","min(Precip intensity (mm/h))","max(Precip intensity (mm/h))","std(Precip intensity (mm/h))","med(Precip intensity (mm/h))"
2014-04-20 00:00:00,2,38729,0,0.00,2,2,0,2,28282,50000,5629,39335,0,0,0,0,0.00,0.00,0.00,0.00
2014-04-20 00:10:00,2,44594,0,0.00,2,2,0,2,30507,50000,6331,47284,0,0,0,0,0.00,0.00,0.00,0.00
2014-04-20 00:20:00,2,37517,0,0.00,2,2,0,2,23769,50000,7994,36402,0,0,0,0,0.00,0.00,0.00,0.00
2014-04-20 00:30:00,2,35704,0,0.00,2,2,0,2,23154,50000,10173,35401,0,0,0,0,0.00,0.00,0.00,0.00
2014-04-20 00:40:00,2,38703,0,0.00,2,2,0,2,20287,50000,10714,42818,0,0,0,0,0.00,0.00,0.00,0.00
2014-04-20 00:50:00,2,42977,0,0.00,2,2,0,2,33386,50000,5384,42765,0,0,0,0,0.00,0.00,0.00,0.00
2014-04-20 01:00:00,2,36558,0,0.00,2,2,0,2,17565,50000,11616,37522,0,0,0,0,0.00,0.00,0.00,0.00
2014-04-20 01:10:00,2,39585,0,0.00,2,2,0,2,31474,50000,6837,39012,0,0,0,0,0.00,0.00,0.00,0.00
2014-04-20 01:20:00,2,38070,0,0.00,2,2,0,2,25114,47221,7030,39644,0,0,0,0,0.00,0.00,0.00,0.00
2014-04-20 01:30:00,2,42024,0,0.00,2,2,0,2,30136,50000,7168,40966,0,0,0,0,0.00,0.00,0.00,0.00
2014-04-20 01:40:00,2,40872,0,0.00,2,2,0,2,25069,50000,7207,41553,0,0,0,0,0.00,0.00,0.00,0.00
2014-04-20 01:50:00,2,44667,0,0.00,2,2,0,2,31655,50000,5640,45652,0,0,0,0,0.00,0.00,0.00,0.00
2014-04-20 02:00:00,2,40975,0,0.00,2,2,0,2,27403,50000,6605,41660,0,0,0,0,0.00,0.00,0.00,0.00
2014-04-20 02:10:00,2,47685,0,0.00,2,2,0,2,42568,50000,2848,49558,0,0,0,0,0.00,0.00,0.00,0.00
2014-04-20 02:20:00,2,34067,0,0.00,2,2,0,2,22123,50000,8670,30162,0,0,0,0,0.00,0.00,0.00,0.00
2014-04-20 02:30:00,2,42913,0,0.00,2,2,0,2,30382,50000,8166,50000,0,0,0,0,0.00,0.00,0.00,0.00
2014-04-20 02:40:00,2,42274,0,0.00,2,2,0,2,29738,50000,5439,43953,0,0,0,0,0.00,0.00,0.00,0.00
2014-04-20 02:50:00,2,36622,0,0.00,2,2,0,2,19060,50000,10304,37462,0,0,0,0,0.00,0.00,0.00,0.00
2014-04-20 03:00:00,2,36638,0,0.00,2,2,0,2,27019,50000,8630,33066,0,0,0,0,0.00,0.00,0.00,0.00
2014-04-20 03:10:00,2,36177,0,0.00,2,2,0,2,24991,50000,9273,32832,0,0,0,0,0.00,0.00,0.00,0.00
2014-04-20 03:20:00,2,39154,0,0.00,2,2,0,2,29940,46385,5580,41864,0,0,0,0,0.00,0.00,0.00,0.00
2014-04-20 03:30:00,2,37680,0,0.00,2,2,0,2,28544,50000,7285,35830,0,0,0,0,0.00,0.00,0.00,0.00
2014-04-20 03:40:00,2,33020,0,0.00,2,2,0,2,22872,41184,6348,35598,0,0,0,0,0.00,0.00,0.00,0.00
2014-04-20 03:50:00,2,39658,0,0.00,2,2,0,2,29239,50000,6831,40790,0,0,0,0,0.00,0.00,0.00,0.00
2014-04-20 04:00:00,2,42075,0,0.00,2,2,0,2,26894,50000,8055,44619,0,0,0,0,0.00,0.00,0.00,0.00
2014-04-20 04:10:00,2,42266,0,0.00,2,2,0,2,30836,50000,6354,43401,0,0,0,0,0.00,0.00,0.00,0.00
2014-04-20 04:20:00,2,33143,0,0.00,2,2,0,2,20064,50000,11562,28890,0,0,0,0,0.00,0.00,0.00,0.00
2014-04-20 04:30:00,2,35928,0,0.00,2,2,0,2,18882,50000,9711,36098,0,0,0,0,0.00,0.00,0.00,0.00
2014-04-20 04:40:00,2,37612,0,0.00,2,2,0,2,22572,50000,7584,38472,0,0,0,0,0.00,0.00,0.00,0.00
2014-04-20 04:50:00,2,42000,0,0.00,2,2,0,2,21939,50000,8791,45550,0,0,0,0,0.00,0.00,0.00,0.00
2014-04-20 05:00:00,2,37811,0,0.00,2,2,0,2,23697,50000,8729,35470,0,0,0,0,0.00,0.00,0.00,0.00
2014-04-20 05:10:00,2,33028,0,0.00,2,2,0,2,18399,50000,9932,31895,0,0,0,0,0.00,0.00,0.00,0.00
2014-04-20 05:20:00,2,44204,0,0.00,2,2,0,2,34795,50000,5846,46860,0,0,0,0,0.00,0.00,0.00,0.00
2014-04-20 05:30:00,2,41593,0,0.00,2,2,0,2,33433,50000,4518,41704,0,0,0,0,0.00,0.00,0.00,0.00
2014-04-20 05:40:00,2,31787,0,0.00,2,2,0,2,22695,41092,5881,32544,0,0,0,0,0.00,0.00,0.00,0.00
2014-04-20 05:50:00,2,41655,0,0.00,2,2,0,2,27895,50000,7328,41651,0,0,0,0,0.00,0.00,0.00,0.00
2014-04-20 06:00:00,2,41312,0,0.00,2,2,0,2,23459,50000,9987,45147,0,0,0,0,0.00,0.00,0.00,0.00
2014-04-20 06:10:00,2,33924,0,0.00,2,2,0,2,20096,50000,9801,32106,0,0,0,0,0.00,0.00,0.00,0.00
2014-04-20 06:20:00,2,42212,0,0.00,2,2,0,2,32869,50000,6192,42546,0,0,0,0,0.00,0.00,0.00,0.00
2014-04-20 06:30:00,2,42583,0,0.00,2,2,0,2,30680,50000,7983,46454,0,0,0,0,0.00,0.00,0.00,0.00
2014-04-20 06:40:00,2,42709,0,0.00,2,2,0,2,30754,50000,6051,43157,0,0,0,0,0.00,0.00,0.00,0.00
2014-04-20 06:50:00,2,33926,0,0.00,2,2,0,2,24098,40246,4949,35118,0,0,0,0,0.00,0.00,0.00,0.00
2014-04-20 07:00:00,2,40938,0,0.00,2,2,0,2,31087,50000,7637,42655,0,0,0,0,0.00,0.00,0.00,0.00
2014-04-20 07:10:00,2,38121,0,0.00,2,2,0,2,20306,50000,9827,41944,0,0,0,0,0.00,0.00,0.00,0.00
2014-04-20 07:20:00,2,47764,0,0.00,2,2,0,2,42854,50000,2696,49120,0,0,0,0,0.00,0.00,0.00,0.00
2014-04-20 07:30:00,2,48337,0,0.00,2,2,0,2,41841,50000,2569,50000,0,0,0,0,0.00,0.00,0.00,0.00
2014-04-20 07:40:00,2,39483,0,0.00,2,2,0,2,20896,50000,9489,43540,0,0,0,0,0.00,0.00,0.00,0.00
2014-04-20 07:50:00,2,42551,0,0.00,2,2,0,2,35364,50000,5531,42204,0,0,0,0,0.00,0.00,0.00,0.00
2014-04-20 08:00:00,2,38187,0,0.00,2,2,0,2,32450,44242,4006,36740,0,0,0,0,0.00,0.00,0.00,0.00
2014-04-20 08:10:00,2,40182,0,0.00,2,2,0,2,25478,50000,8167,39618,0,0,0,0,0.00,0.00,0.00,0.00
2014-04-20 08:20:00,2,38951,0,0.00,2,2,0,2,25334,50000,8638,39992,0,0,0,0,0.00,0.00,0.00,0.00
2014-04-20 08:30:00,2,47558,0,0.00,2,2,0,2,45010,50000,1867,47078,0,0,0,0,0.00,0.00,0.00,0.00
2014-04-20 08:40:00,2,40865,0,0.00,2,2,0,2,24021,50000,8787,43240,0,0,0,0,0.00,0.00,0.00,0.00
2014-04-20 08:50:00,2,41762,0,0.00,2,2,0,2,34773,46930,3723,41268,0,0,0,0,0.00,0.00,0.00,0.00
2014-04-20 09:00:00,2,49182,0,0.00,2,2,0,2,46475,50000,1235,50000,0,0,0,0,0.00,0.00,0.00,0.00
2014-04-20 09:10:00,2,48343,0,0.00,2,2,0,2,34823,50000,4515,50000,0,0,0,0,0.00,0.00,0.00,0.00
2014-04-20 09:20:00,2,42324,0,0.00,2,2,0,2,32451,50000,5894,42079,0,0,0,0,0.00,0.00,0.00,0.00
2014-04-20 09:30:00,2,48207,0,0.00,2,2,0,2,43727,50000,2324,49612,0,0,0,0,0.00,0.00,0.00,0.00
2014-04-20 09:40:00,2,44725,0,0.00,2,2,0,2,37837,50000,4514,44712,0,0,0,0,0.00,0.00,0.00,0.00
2014-04-20 09:50:00,2,44703,0,0.00,2,2,0,2,36005,50000,4759,46318,0,0,0,0,0.00,0.00,0.00,0.00
2014-04-20 10:00:00,2,42100,0,0.00,2,2,0,2,33735,49244,6077,40354,0,0,0,0,0.00,0.00,0.00,0.00
2014-04-20 10:10:00,2,49301,0,0.00,2,2,0,2,46865,50000,1095,50000,0,0,0,0,0.00,0.00,0.00,0.00
2014-04-20 10:20:00,2,48157,0,0.00,2,2,0,2,41915,50000,2800,50000,0,0,0,0,0.00,0.00,0.00,0.00
2014-04-20 10:30:00,2,49166,0,0.00,2,2,0,2,45721,50000,1332,49922,0,0,0,0,0.00,0.00,0.00,0.00
2014-04-20 10:40:00,2,47734,0,0.00,2,2,0,2,42973,50000,2664,49102,0,0,0,0,0.00,0.00,0.00,0.00
2014-04-20 10:50:00,2,49799,0,0.00,2,2,0,2,48828,50000,364,50000,0,0,0,0,0.00,0.00,0.00,0.00
2014-04-20 11:00:00,2,49710,0,0.00,2,2,0,2,48536,50000,580,50000,0,0,0,0,0.00,0.00,0.00,0.00
2014-04-20 11:10:00,2,49886,0,0.00,2,2,0,2,48857,50000,343,50000,0,0,0,0,0.00,0.00,0.00,0.00
2014-04-20 11:20:00,2,50000,0,0.00,2,2,0,2,50000,50000,0,50000,0,0,0,0,0.00,0.00,0.00,0.00
2014-04-20 11:30:00,2,49798,0,0.00,2,2,0,2,47979,50000,606,50000,0,0,0,0,0.00,0.00,0.00,0.00
2014-04-20 11:40:00,2,49991,0,0.00,2,2,0,2,49911,50000,27,50000,0,0,0,0,0.00,0.00,0.00,0.00
2014-04-20 11:50:00,2,50000,0,0.00,2,2,0,2,50000,50000,0,50000,0,0,0,0,0.00,0.00,0.00,0.00
2014-04-20 12:00:00,2,50000,0,0.00,2,2,0,2,50000,50000,0,50000,0,0,0,0,0.00,0.00,0.00,0.00
2014-04-20 12:10:00,2,50000,0,0.00,2,2,0,2,50000,50000,0,50000,0,0,0,0,0.00,0.00,0.00,0.00
2014-04-20 12:20:00,2,49954,0,0.00,2,2,0,2,49651,50000,106,50000,0,0,0,0,0.00,0.00,0.00,0.00
2014-04-20 12:30:00,2,50000,0,0.00,2,2,0,2,50000,50000,0,50000,0,0,0,0,0.00,0.00,0.00,0.00
2014-04-20 12:40:00,2,49306,0,0.00,2,2,0,2,45656,50000,1442,50000,0,0,0,0,0.00,0.00,0.00,0.00
2014-04-20 12:50:00,2,49588,0,0.00,2,2,0,2,45881,50000,1236,50000,0,0,0,0,0.00,0.00,0.00,0.00
2014-04-20 13:00:00,2,49870,0,0.00,2,2,0,2,48733,50000,379,50000,0,0,0,0,0.00,0.00,0.00,0.00
2014-04-20 13:10:00,2,49706,0,0.00,2,2,0,2,47795,50000,674,50000,0,0,0,0,0.00,0.00,0.00,0.00
2014-04-20 13:20:00,2,49789,0,0.00,2,2,0,2,48199,50000,538,50000,0,0,0,0,0.00,0.00,0.00,0.00
2014-04-20 13:30:00,2,49862,0,0.00,2,2,0,2,48620,50000,414,50000,0,0,0,0,0.00,0.00,0.00,0.00
2014-04-20 13:40:00,2,49931,0,0.00,2,2,0,2,49313,50000,206,50000,0,0,0,0,0.00,0.00,0.00,0.00
2014-04-20 13:50:00,2,49446,0,0.00,2,2,0,2,46788,50000,1044,50000,0,0,0,0,0.00,0.00,0.00,0.00
2014-04-20 14:00:00,2,49566,0,0.00,2,2,0,2,45862,50000,1236,50000,0,0,0,0,0.00,0.00,0.00,0.00
2014-04-20 14:10:00,2,49988,0,0.00,2,2,0,2,49875,50000,38,50000,0,0,0,0,0.00,0.00,0.00,0.00
2014-04-20 14:20:00,2,50000,0,0.00,2,2,0,2,50000,50000,0,50000,0,0,0,0,0.00,0.00,0.00,0.00
2014-04-20 14:30:00,2,50000,0,0.00,2,2,0,2,50000,50000,0,50000,0,0,0,0,0.00,0.00,0.00,0.00
2014-04-20 14:40:00,2,49838,0,0.00,2,2,0,2,49084,50000,327,50000,0,0,0,0,0.00,0.00,0.00,0.00
2014-04-20 14:50:00,2,48694,0,0.00,2,2,0,2,43827,50000,1952,49678,0,0,0,0,0.00,0.00,0.00,0.00
2014-04-20 15:00:00,2,49650,0,0.00,2,2,0,2,46497,50000,1051,50000,0,0,0,0,0.00,0.00,0.00,0.00
2014-04-20 15:10:00,2,50000,0,0.00,2,2,0,2,50000,50000,0,50000,0,0,0,0,0.00,0.00,0.00,0.00
2014-04-20 15:20:00,2,49838,0,0.00,2,2,0,2,48518,50000,442,50000,0,0,0,0,0.00,0.00,0.00,0.00
2014-04-20 15:30:00,2,49914,0,0.00,2,2,0,2,49139,50000,258,50000,0,0,0,0,0.00,0.00,0.00,0.00
2014-04-20 15:40:00,2,50000,0,0.00,2,2,0,2,50000,50000,0,50000,0,0,0,0,0.00,0.00,0.00,0.00
2014-04-20 15:50:00,2,49800,0,0.00,2,2,0,2,47997,50000,601,50000,0,0,0,0,0.00,0.00,0.00,0.00
2014-04-20 16:00:00,2,50000,0,0.00,2,2,0,2,50000,50000,0,50000,0,0,0,0,0.00,0.00,0.00,0.00
2014-04-20 16:10:00,2,49478,0,0.00,2,2,0,2,46175,50000,1150,50000,0,0,0,0,0.00,0.00,0.00,0.00
2014-04-20 16:20:00,2,50000,0,0.00,2,2,0,2,50000,50000,0,50000,0,0,0,0,0.00,0.00,0.00,0.00
2014-04-20 16:30:00,2,49866,0,0.00,2,2,0,2,48974,50000,312,50000,0,0,0,0,0.00,0.00,0.00,0.00
2014-04-20 16:40:00,2,50000,0,0.00,2,2,0,2,50000,50000,0,50000,0,0,0,0,0.00,0.00,0.00,0.00
2014-04-20 16:50:00,2,49949,0,0.00,2,2,0,2,49487,50000,154,50000,0,0,0,0,0.00,0.00,0.00,0.00
2014-04-20 17:00:00,2,50000,0,0.00,2,2,0,2,50000,50000,0,50000,0,0,0,0,0.00,0.00,0.00,0.00
2014-04-20 17:10:00,2,50000,0,0.00,2,2,0,2,50000,50000,0,50000,0,0,0,0,0.00,0.00,0.00,0.00
2014-04-20 17:20:00,2,50000,0,0.00,2,2,0,2,50000,50000,0,50000,0,0,0,0,0.00,0.00,0.00,0.00
2014-04-20 17:30:00,2,50000,0,0.00,2,2,0,2,50000,50000,0,50000,0,0,0,0,0.00,0.00,0.00,0.00
2014-04-20 17:40:00,2,49827,0,0.00,2,2,0,2,48272,50000,518,50000,0,0,0,0,0.00,0.00,0.00,0.00
2014-04-20 17:50:00,2,50000,0,0.00,2,2,0,2,50000,50000,0,50000,0,0,0,0,0.00,0.00,0.00,0.00
2014-04-20 18:00:00,2,50000,0,0.00,2,2,0,2,50000,50000,0,50000,0,0,0,0,0.00,0.00,0.00,0.00
2014-04-20 18:10:00,2,49696,0,0.00,2,2,0,2,46962,50000,911,50000,0,0,0,0,0.00,0.00,0.00,0.00
2014-04-20 18:20:00,2,49920,0,0.00,2,2,0,2,49204,50000,239,50000,0,0,0,0,0.00,0.00,0.00,0.00
2014-04-20 18:30:00,2,49365,0,0.00,2,2,0,2,46222,50000,1175,50000,0,0,0,0,0.00,0.00,0.00,0.00
2014-04-20 18:40:00,2,49612,0,0.00,2,2,0,2,46121,50000,1164,50000,0,0,0,0,0.00,0.00,0.00,0.00
2014-04-20 18:50:00,2,49954,0,0.00,2,2,0,2,49543,50000,137,50000,0,0,0,0,0.00,0.00,0.00,0.00
2014-04-20 19:00:00,2,50000,0,0.00,2,2,0,2,50000,50000,0,50000,0,0,0,0,0.00,0.00,0.00,0.00
2014-04-20 19:10:00,2,49468,0,0.00,2,2,0,2,47155,50000,965,50000,0,0,0,0,0.00,0.00,0.00,0.00
2014-04-20 19:20:00,2,50000,0,0.00,2,2,0,2,50000,50000,0,50000,0,0,0,0,0.00,0.00,0.00,0.00
2014-04-20 19:30:00,2,49717,0,0.00,2,2,0,2,48387,50000,487,50000,0,0,0,0,0.00,0.00,0.00,0.00
2014-04-20 19:40:00,2,49989,0,0.00,2,2,0,2,49891,50000,33,50000,0,0,0,0,0.00,0.00,0.00,0.00
2014-04-20 19:50:00,2,50000,0,0.00,2,2,0,2,50000,50000,0,50000,0,0,0,0,0.00,0.00,0.00,0.00
2014-04-20 20:00:00,2,49556,0,0.00,2,2,0,2,47523,50000,834,50000,0,0,0,0,0.00,0.00,0.00,0.00
2014-04-20 20:10:00,2,49283,0,0.00,2,2,0,2,46318,50000,1212,50000,0,0,0,0,0.00,0.00,0.00,0.00
2014-04-20 20:20:00,2,49787,0,0.00,2,2,0,2,48343,50000,502,50000,0,0,0,0,0.00,0.00,0.00,0.00
2014-04-20 20:30:00,2,45534,0,0.00,2,2,0,2,30369,50000,6088,48433,0,0,0,0,0.00,0.00,0.00,0.00
2014-04-20 20:40:00,2,41759,0,0.00,2,2,0,2,34796,47288,4397,42069,0,0,0,0,0.00,0.00,0.00,0.00
2014-04-20 20:50:00,2,47412,0,0.00,2,2,0,2,43034,50000,2550,47901,0,0,0,0,0.00,0.00,0.00,0.00
2014-04-20 21:00:00,2,49390,0,0.00,2,2,0,2,47621,50000,865,49970,0,0,0,0,0.00,0.00,0.00,0.00
2014-04-20 21:10:00,2,47002,0,0.00,2,2,0,2,38780,50000,4348,50000,0,0,0,0,0.00,0.00,0.00,0.00
2014-04-20 21:20:00,2,44014,0,0.00,2,2,0,2,35200,50000,5152,45682,0,0,0,0,0.00,0.00,0.00,0.00
2014-04-20 21:30:00,2,42570,0,0.00,2,2,0,2,35427,48167,3833,42746,0,0,0,0,0.00,0.00,0.00,0.00
2014-04-20 21:40:00,2,46467,0,0.00,2,2,0,2,40231,50000,3539,46933,0,0,0,0,0.00,0.00,0.00,0.00
2014-04-20 21:50:00,2,38693,0,0.00,2,2,0,2,30735,47446,6247,38167,0,0,0,0,0.00,0.00,0.00,0.00
2014-04-20 22:00:00,2,42764,0,0.00,2,2,0,2,34998,50000,5235,41720,0,0,0,0,0.00,0.00,0.00,0.00
2014-04-20 22:10:00,2,41071,0,0.00,2,2,0,2,26872,50000,8477,40752,0,0,0,0,0.00,0.00,0.00,0.00
2014-04-20 22:20:00,2,47873,0,0.00,2,2,0,2,38677,50000,3717,50000,0,0,0,0,0.00,0.00,0.00,0.00
2014-04-20 22:30:00,2,30539,0,0.00,2,2,0,2,22674,49954,7752,27142,0,0,0,0,0.00,0.00,0.00,0.00
2014-04-20 22:40:00,2,41934,0,0.00,2,2,0,2,31983,50000,5877,43571,0,0,0,0,0.00,0.00,0.00,0.00
2014-04-20 22:50:00,2,38716,0,0.00,2,2,0,2,30731,50000,7328,35330,0,0,0,0,0.00,0.00,0.00,0.00
2014-04-20 23:00:00,2,34022,0,0.00,2,2,0,2,27499,40559,4233,34536,0,0,0,0,0.00,0.00,0.00,0.00
2014-04-20 23:10:00,2,38836,0,0.00,2,2,0,2,27416,50000,6732,36756,0,0,0,0,0.00,0.00,0.00,0.00
2014-04-20 23:20:00,2,40413,0,0.00,2,2,0,2,36205,44187,2720,41014,0,0,0,0,0.00,0.00,0.00,0.00
2014-04-20 23:30:00,2,45748,0,0.00,2,2,0,2,34733,50000,4953,47467,0,0,0,0,0.00,0.00,0.00,0.00
2014-04-20 23:40:00,2,41306,0,0.00,2,2,0,2,35697,50000,4612,40110,0,0,0,0,0.00,0.00,0.00,0.00
2014-04-20 23:50:00,2,43844,0,0.00,2,2,0,2,37609,50000,4148,42963,0,0,0,0,0.00,0.00,0.00,0.00
